When you browse on this site, cookies collect data to enhance your experience and personalize the content and advertising you see.
Visit our Privacy Policy to learn more. By continuing to use the site, you agree to this use of cookies and data.
  • In Schweiz
  • Länderverzeichnis
  • Für 7 Tage
  • Wassertemperatur
  • Satellitenkarten
  • Wetterkarte
  • Widgets
  • user-avatar
    Anmelden

    Stündliche Wetter Lemgo

    Heute, 18 Juli, Donnerstag

    Zeit Temperatur Niederschläge Wind Luftdruck Luftfeuchtigkeit
    00:00 +14°C° 0 mm 0 m/S 751 mmHg 86%
    01:00 +14°C° 0 mm 0 m/S 750 mmHg 87%
    02:00 +13°C° 0 mm 0 m/S 750 mmHg 88%
    03:00 +13°C° 0 mm 0 m/S 750 mmHg 89%
    04:00 +13°C° 0 mm 0 m/S 750 mmHg 89%
    05:00 +14°C° 0 mm 0 m/S 750 mmHg 87%
    06:00 +16°C° 0 mm 1 m/S 750 mmHg 84%
    07:00 +18°C° 0 mm 1 m/S 749 mmHg 81%
    08:00 +20°C° 0 mm 1 m/S 750 mmHg 74%
    09:00 +20°C° 0 mm 2 m/S 750 mmHg 68%
    10:00 +23°C° 0 mm 2 m/S 750 mmHg 61%
    11:00 +23°C° 0 mm 2 m/S 749 mmHg 59%
    12:00 +24°C° 0 mm 2 m/S 749 mmHg 56%
    13:00 +25°C° 0 mm 2 m/S 749 mmHg 53%
    14:00 +25°C° 0 mm 2 m/S 749 mmHg 51%
    15:00 +26°C° 0 mm 2 m/S 749 mmHg 49%
    16:00 +26°C° 0 mm 2 m/S 749 mmHg 47%
    17:00 +25°C° 0.2 mm 2 m/S 749 mmHg 56%
    18:00 +23°C° 0.2 mm 2 m/S 749 mmHg 66%
    19:00 +21°C° 0.2 mm 2 m/S 749 mmHg 75%
    20:00 +20°C° 0.2 mm 2 m/S 749 mmHg 80%
    21:00 +19°C° 0.2 mm 1 m/S 749 mmHg 84%
    22:00 +18°C° 0.2 mm 1 m/S 750 mmHg 89%
    23:00 +18°C° 0 mm 1 m/S 750 mmHg 90%

    Morgen, 19 Juli, Freitag

    Zeit Temperatur Niederschläge Wind Luftdruck Luftfeuchtigkeit
    00:00 +18°C° 0 mm 1 m/S 750 mmHg 90%
    01:00 +15°C° 0 mm 0 m/S 750 mmHg 90%
    02:00 +16°C° 0.1 mm 1 m/S 750 mmHg 91%
    03:00 +16°C° 0.1 mm 1 m/S 750 mmHg 92%
    04:00 +16°C° 0.1 mm 1 m/S 750 mmHg 93%
    05:00 +18°C° 0 mm 1 m/S 750 mmHg 91%
    06:00 +17°C° 0 mm 2 m/S 750 mmHg 88%
    07:00 +18°C° 0 mm 2 m/S 750 mmHg 86%
    08:00 +19°C° 0 mm 3 m/S 751 mmHg 81%
    09:00 +21°C° 0 mm 3 m/S 751 mmHg 75%
    10:00 +22°C° 0 mm 4 m/S 751 mmHg 70%
    11:00 +24°C° 0.1 mm 3 m/S 751 mmHg 66%
    12:00 +25°C° 0.1 mm 3 m/S 751 mmHg 63%
    13:00 +26°C° 0.1 mm 3 m/S 750 mmHg 59%
    14:00 +26°C° 0.1 mm 3 m/S 751 mmHg 58%
    15:00 +26°C° 0.1 mm 3 m/S 751 mmHg 58%
    16:00 +26°C° 0.1 mm 3 m/S 751 mmHg 58%
    17:00 +25°C° 0.1 mm 2 m/S 751 mmHg 63%
    18:00 +24°C° 0.1 mm 2 m/S 751 mmHg 67%
    19:00 +24°C° 0.1 mm 1 m/S 751 mmHg 72%
    20:00 +22°C° 0 mm 1 m/S 751 mmHg 77%
    21:00 +20°C° 0 mm 1 m/S 751 mmHg 81%
    22:00 +19°C° 0 mm 1 m/S 751 mmHg 86%
    23:00 +18°C° 0 mm 1 m/S 751 mmHg 86%

    übermorgen, 20 Juli, Samstag

    Zeit Temperatur Niederschläge Wind Luftdruck Luftfeuchtigkeit
    00:00 +18°C° 0 mm 1 m/S 751 mmHg 87%
    01:00 +18°C° 0 mm 1 m/S 751 mmHg 87%
    02:00 +16°C° 0 mm 1 m/S 751 mmHg 87%
    03:00 +16°C° 0 mm 1 m/S 751 mmHg 86%
    04:00 +16°C° 0 mm 1 m/S 751 mmHg 86%
    05:00 +18°C° 0 mm 1 m/S 751 mmHg 82%
    06:00 +18°C° 0 mm 2 m/S 751 mmHg 79%
    07:00 +19°C° 0 mm 2 m/S 751 mmHg 75%
    08:00 +21°C° 0 mm 2 m/S 751 mmHg 70%
    09:00 +24°C° 0 mm 3 m/S 751 mmHg 65%
    10:00 +26°C° 0 mm 4 m/S 751 mmHg 59%
    11:00 +26°C° 0.2 mm 4 m/S 751 mmHg 58%
    12:00 +27°C° 0.2 mm 4 m/S 750 mmHg 58%
    13:00 +27°C° 0.2 mm 4 m/S 750 mmHg 57%
    14:00 +27°C° 0.4 mm 4 m/S 750 mmHg 59%
    15:00 +27°C° 0.4 mm 3 m/S 750 mmHg 61%
    16:00 +27°C° 0.4 mm 3 m/S 750 mmHg 63%
    17:00 +26°C° 0.8 mm 3 m/S 750 mmHg 69%
    18:00 +25°C° 0.8 mm 3 m/S 750 mmHg 75%
    19:00 +24°C° 0.8 mm 2 m/S 750 mmHg 81%
    20:00 +23°C° 0.4 mm 2 m/S 751 mmHg 83%
    21:00 +21°C° 0.4 mm 2 m/S 751 mmHg 85%
    22:00 +20°C° 0.4 mm 2 m/S 751 mmHg 88%
    23:00 +19°C° 0.2 mm 2 m/S 751 mmHg 90%

    21 Juli, Sonntag

    Zeit Temperatur Niederschläge Wind Luftdruck Luftfeuchtigkeit
    00:00 +18°C° 0.2 mm 2 m/S 751 mmHg 92%
    01:00 +18°C° 0.2 mm 2 m/S 751 mmHg 94%
    02:00 +17°C° 0.1 mm 2 m/S 751 mmHg 95%
    03:00 +17°C° 0.1 mm 2 m/S 752 mmHg 96%
    04:00 +17°C° 0.1 mm 2 m/S 752 mmHg 96%
    05:00 +17°C° 0 mm 3 m/S 752 mmHg 93%
    06:00 +18°C° 0 mm 3 m/S 753 mmHg 91%
    07:00 +18°C° 0 mm 4 m/S 753 mmHg 88%
    08:00 +20°C° 0 mm 4 m/S 753 mmHg 81%
    09:00 +21°C° 0 mm 5 m/S 754 mmHg 75%
    10:00 +22°C° 0 mm 5 m/S 754 mmHg 68%
    11:00 +23°C° 0 mm 5 m/S 755 mmHg 66%
    12:00 +25°C° 0 mm 5 m/S 755 mmHg 64%
    13:00 +26°C° 0 mm 5 m/S 755 mmHg 61%
    14:00 +26°C° 0 mm 5 m/S 755 mmHg 61%
    15:00 +26°C° 0 mm 5 m/S 755 mmHg 62%
    16:00 +26°C° 0 mm 5 m/S 756 mmHg 62%
    17:00 +25°C° 0 mm 4 m/S 756 mmHg 67%
    18:00 +24°C° 0 mm 3 m/S 756 mmHg 72%
    19:00 +23°C° 0 mm 2 m/S 756 mmHg 77%
    20:00 +21°C° 0 mm 2 m/S 757 mmHg 83%
    21:00 +19°C° 0 mm 2 m/S 757 mmHg 89%
    22:00 +19°C° 0 mm 1 m/S 758 mmHg 95%
    23:00 +18°C° 0 mm 1 m/S 758 mmHg 95%

    22 Juli, Montag

    Zeit Temperatur Niederschläge Wind Luftdruck Luftfeuchtigkeit
    00:00 +18°C° 0 mm 1 m/S 758 mmHg 96%
    01:00 +15°C° 0 mm 0 m/S 758 mmHg 96%
    02:00 +15°C° 0 mm 0 m/S 758 mmHg 96%
    03:00 +15°C° 0 mm 0 m/S 758 mmHg 96%
    04:00 +14°C° 0 mm 0 m/S 758 mmHg 95%
    05:00 +15°C° 0 mm 0 m/S 758 mmHg 92%
    06:00 +18°C° 0 mm 1 m/S 758 mmHg 89%
    07:00 +19°C° 0 mm 1 m/S 759 mmHg 86%
    08:00 +21°C° 0 mm 1 m/S 759 mmHg 78%
    09:00 +23°C° 0 mm 1 m/S 759 mmHg 70%
    10:00 +25°C° 0 mm 2 m/S 759 mmHg 62%
    11:00 +26°C° 0 mm 2 m/S 758 mmHg 58%
    12:00 +27°C° 0 mm 2 m/S 758 mmHg 54%
    13:00 +28°C° 0 mm 2 m/S 758 mmHg 51%
    14:00 +28°C° 0 mm 2 m/S 758 mmHg 51%
    15:00 +28°C° 0 mm 2 m/S 757 mmHg 51%
    16:00 +28°C° 0 mm 3 m/S 757 mmHg 51%
    17:00 +27°C° 0 mm 3 m/S 757 mmHg 57%
    18:00 +26°C° 0 mm 3 m/S 757 mmHg 64%
    19:00 +25°C° 0 mm 3 m/S 757 mmHg 70%
    20:00 +22°C° 0 mm 3 m/S 757 mmHg 72%
    21:00 +21°C° 0 mm 3 m/S 757 mmHg 75%
    22:00 +20°C° 0 mm 3 m/S 757 mmHg 77%
    23:00 +19°C° 0 mm 2 m/S 757 mmHg 78%

    23 Juli, Dienstag

    Zeit Temperatur Niederschläge Wind Luftdruck Luftfeuchtigkeit
    00:00 +19°C° 0 mm 2 m/S 757 mmHg 80%
    01:00 +18°C° 0 mm 2 m/S 757 mmHg 81%
    02:00 +18°C° 0 mm 2 m/S 757 mmHg 81%
    03:00 +17°C° 0 mm 2 m/S 757 mmHg 82%
    04:00 +17°C° 0 mm 2 m/S 757 mmHg 82%
    05:00 +18°C° 0 mm 2 m/S 757 mmHg 78%
    06:00 +19°C° 0 mm 2 m/S 757 mmHg 74%
    07:00 +20°C° 0 mm 2 m/S 757 mmHg 71%
    08:00 +22°C° 0 mm 3 m/S 756 mmHg 66%
    09:00 +25°C° 0 mm 3 m/S 756 mmHg 62%
    10:00 +27°C° 0 mm 4 m/S 756 mmHg 57%
    11:00 +28°C° 0 mm 4 m/S 756 mmHg 55%
    12:00 +29°C° 0 mm 4 m/S 756 mmHg 52%
    13:00 +30°C° 0 mm 4 m/S 755 mmHg 50%
    14:00 +30°C° 0 mm 4 m/S 755 mmHg 50%
    15:00 +30°C° 0 mm 4 m/S 755 mmHg 50%
    16:00 +30°C° 0 mm 4 m/S 754 mmHg 50%
    17:00 +29°C° 0 mm 4 m/S 754 mmHg 55%
    18:00 +28°C° 0 mm 4 m/S 754 mmHg 59%
    19:00 +26°C° 0 mm 4 m/S 754 mmHg 64%
    20:00 +25°C° 0 mm 4 m/S 754 mmHg 64%
    21:00 +22°C° 0 mm 3 m/S 754 mmHg 64%
    22:00 +21°C° 0 mm 3 m/S 754 mmHg 63%
    23:00 +20°C° 0 mm 3 m/S 754 mmHg 62%
    Mehr zeigen